Vertical_Velocity
0 1 1 3 5 5 1 2 4 4 0 4 5 4 2 5 5 4 3 2 2 2 2 2 3 4 3 3 3 3 2 2 2 2 1 1 1 1 1 1 1 1 1 1 1 1 1 1 0 0 0 0 0 -0 -1 -2 -2 -2 -2 -2 -1 -1 -0 -0 1 2 3 3 3 2 2 2 3 2 1 2 2 3 4 4 4 2 1 1 1 1
-1 -0 1 1 4 5 1 0 2 4 0 1 3 4 4 4 4 5 5 3 2 2 2 1 1 3 2 1 1 2 1 1 1 1 -0 0 0 -0 -0 -0 -0 -0 0 1 1 1 1 1 1 -0 -1 -1 -1 -2 -2 -1 -1 -0 -0 -0 -1 -0 -0 0 1 1 3 4 4 3 2 2 2 2 1 1 2 4 6 6 5 4 2 2 2 2
0 -0 -1 1 3 3 1 -1 -0 2 2 -0 -0 2 5 2 2 3 5 2 1 2 3 1 -0 -0 0 0 0 -0 -2 -1 -1 -2 -2 -2 -2 -2 -2 -2 -1 -1 -1 -0 -0 -0 0 0 0 -0 -1 -2 -3 -3 -2 -1 0 1 2 1 0 -0 0 1 1 1 2 3 4 4 2 2 2 2 1 0 1 3 6 7 6 5 4 3 3 2
2 1 -1 2 2 1 1 -0 -2 -2 2 -0 -2 -2 1 0 -1 -1 1 1 -1 -1 -0 1 -1 -2 -3 -1 -0 -1 -2 -3 -3 -3 -4 -5 -5 -5 -4 -4 -4 -3 -2 -2 -2 -1 -1 -1 -1 -1 -1 -2 -2 -3 -3 -1 1 2 3 2 1 1 1 1 1 1 1 2 3 3 3 2 2 2 2 1 -0 1 4 7 7 7 5 4 4 3
1 1 -1 3 2 -1 -2 -0 -1 -3 -3 -2 -2 -3 -4 -3 -3 -4 -4 -2 -2 -3 -3 -1 -1 -2 -3 -2 -1 -0 -0 -1 -1 -1 -2 -4 -5 -6 -6 -6 -6 -5 -5 -4 -4 -3 -3 -3 -3 -3 -2 -2 -3 -2 -1 -0 1 2 2 2 1 1 1 2 2 1 1 1 1 1 2 2 2 3 3 2 0 0 1 5 7 8 7 6 5 4
0 -0 -2 0 0 -1 -3 -4 -2 -2 -4 -5 -3 -2 -4 -5 -4 -3 -5 -3 -2 -2 -2 -0 -0 -0 -1 -1 -0 1 1 1 1 2 1 -0 -2 -3 -4 -5 -5 -6 -6 -6 -6 -5 -5 -4 -4 -4 -4 -4 -4 -3 -1 -0 0 1 1 -0 -0 -0 1 2 2 1 0 -1 -1 -1 -0 1 3 5 4 2 1 0 0 2 5 8 8 7 6 4
-1 -0 0 -4 -4 -2 -0 -4 -5 -3 -2 -5 -4 -2 -2 -2 -2 -2 -4 -2 -1 -1 -2 -1 0 1 0 -1 -1 -0 0 0 0 1 2 2 1 -0 -1 -1 -2 -3 -4 -5 -6 -6 -6 -6 -5 -5 -5 -5 -5 -4 -3 -2 -1 -0 -1 -1 -1 -1 -0 1 1 1 -0 -2 -3 -3 -2 1 5 6 6 3 2 1 0 1 4 6 8 8 7 5
-4 -3 2 -2 -6 -7 -3 -1 -2 -4 -5 -4 -2 -2 -4 -2 -0 1 -2 -3 -2 -1 -1 -4 -3 -0 1 -1 -2 -2 -1 -0 -1 -2 -1 1 1 1 1 1 0 -0 -2 -3 -4 -5 -5 -5 -5 -5 -5 -5 -5 -5 -4 -3 -2 -1 -1 -0 -0 -0 -0 0 1 0 -1 -3 -4 -5 -3 1 5 8 6 3 2 1 1 1 2 5 8 10 9 7
-3 -5 -4 0 -1 -5 -10 -6 -0 2 -3 -6 -4 -2 -4 -6 -3 1 3 -2 -3 -3 -2 -5 -6 -5 -2 0 -1 -3 -5 -2 -1 -2 -4 -4 -2 -0 1 1 1 1 1 -1 -1 -2 -2 -2 -3 -4 -4 -4 -5 -4 -4 -4 -3 -2 -1 -0 0 0 0 1 1 1 -0 -3 -5 -6 -5 0 5 7 6 3 1 1 2 1 2 4 8 11 11 10
-2 -3 -6 -4 -1 1 -4 -9 -6 0 4 -3 -5 -4 -2 -6 -8 -6 -1 -0 -1 -3 -5 -5 -5 -5 -8 -4 -1 -0 -3 -5 -4 -2 -1 -6 -6 -5 -1 -1 -1 -1 -0 -0 -0 -0 1 1 0 -0 -2 -3 -3 -4 -4 -4 -3 -2 -1 -0 0 1 1 1 2 1 1 -2 -4 -6 -5 -0 4 6 5 2 2 2 2 2 2 4 6 10 13 13
-4 -3 -2 -4 -4 -2 0 -4 -5 -3 1 -2 -5 -6 -3 -4 -6 -9 -10 -6 -2 -2 -6 -6 -3 -2 -5 -8 -6 -3 -0 -4 -6 -5 -2 -4 -6 -6 -4 -3 -3 -3 -3 -2 -1 1 2 2 2 2 1 -0 -1 -2 -3 -3 -3 -2 -1 -0 1 2 2 2 2 2 2 -0 -3 -5 -5 -1 2 4 4 3 3 3 3 3 3 4 5 9 12 15
-2 -3 -3 -3 -3 -3 -3 -3 -3 -2 -0 -2 -5 -7 -7 -4 -3 -5 -10 -9 -6 -4 -6 -8 -5 -1 -0 -4 -6 -6 -4 -6 -7 -7 -4 -5 -5 -5 -3 -4 -3 -2 -3 -3 -1 1 2 2 2 3 3 2 1 -0 -1 -2 -2 -2 -1 1 1 2 2 2 2 2 2 1 -1 -3 -4 -2 1 3 4 4 4 3 3 3 3 4 4 6 10 14
-2 -1 -3 -3 -3 -2 -2 -3 -3 -3 -1 -1 -3 -5 -6 -4 -3 -4 -7 -8 -6 -5 -6 -9 -7 -4 -1 -3 -4 -4 -5 -8 -10 -9 -6 -6 -5 -4 -3 -5 -4 -3 -2 -2 -1 1 4 2 1 1 3 3 2 1 1 -1 -2 -2 -0 0 1 2 2 2 2 3 3 2 1 -1 -2 -1 1 3 4 4 4 3 3 3 3 3 4 5 8 12
-2 -2 -2 -2 -3 -3 -3 -2 -2 -2 -2 -2 -3 -4 -4 -3 -2 -3 -6 -10 -8 -6 -5 -9 -7 -3 1 -1 -3 -6 -7 -10 -11 -12 -10 -7 -4 -2 -3 -7 -7 -4 -1 -3 -2 1 5 3 0 -0 3 3 2 1 1 1 -1 -1 -1 -0 1 1 2 3 3 3 4 3 2 1 -0 -0 1 3 4 4 4 3 3 3 3 3 3 4 5 8
-1 -2 -3 -3 -3 -2 -2 -2 -3 -4 -4 -2 -3 -4 -6 -6 -4 -3 -4 -9 -10 -8 -7 -10 -10 -7 -1 6 5 -0 -8 -12 -14 -12 -11 -10 -5 -1 -1 -9 -9 -6 -1 -4 -4 -1 4 2 -1 -2 1 3 1 -0 1 2 0 -1 -0 -0 1 1 2 3 3 4 4 4 4 2 1 1 1 3 5 5 4 3 3 3 3 3 2 3 4 6
-2 -2 -2 -3 -3 -3 -2 -1 -2 -4 -6 -5 -4 -3 -2 -6 -7 -7 -4 -7 -9 -10 -9 -8 -10 -11 -11 -2 6 8 2 -10 -15 -14 -8 -11 -7 -1 2 -8 -12 -9 -3 -4 -4 -3 1 -0 -2 -3 -0 0 -0 -0 2 2 1 -0 1 0 0 1 2 2 3 3 4 4 4 3 2 1 2 3 4 5 4 4 4 4 4 4 3 3 4 4
-1 -3 -4 -3 -3 -3 -4 -3 -3 -3 -5 -6 -6 -4 -1 -2 -4 -6 -8 -7 -9 -11 -14 -11 -8 -7 -9 -8 -3 4 7 -6 -14 -15 -9 -10 -7 -1 3 -7 -11 -11 -6 -5 -5 -4 -1 -3 -3 -2 -1 -2 -1 -0 2 1 0 0 1 0 -1 -1 0 1 2 3 4 4 4 4 2 2 2 2 4 5 5 5 4 4 4 4 4 4 4 3
-0 -1 -4 -4 -3 -2 -2 -4 -5 -6 -6 -6 -7 -8 -8 -5 -4 -5 -8 -7 -7 -8 -12 -15 -14 -10 -4 -5 -4 -1 4 -5 -12 -15 -11 -10 -7 -2 2 -5 -9 -11 -8 -7 -5 -3 -2 -4 -3 -1 -1 -2 -1 0 0 -0 0 1 1 -1 -1 -1 -0 1 2 3 4 5 4 4 3 2 2 2 4 4 5 5 5 5 5 5 5 4 4 3
-2 -1 -1 -5 -5 -4 -1 -2 -5 -7 -9 -8 -7 -7 -9 -8 -7 -6 -8 -8 -8 -7 -6 -8 -10 -11 -6 -4 -3 -1 3 -5 -12 -14 -11 -11 -9 -4 2 -4 -9 -10 -6 -5 -4 -3 -3 -3 -2 -1 -1 -1 -1 -1 -1 -1 -0 -0 -0 -1 -0 -0 -0 0 1 3 4 5 5 4 3 2 2 2 2 3 4 5 6 6 5 4 5 5 4 2
-2 -2 -0 -4 -7 -8 -6 -4 -5 -7 -9 -9 -8 -7 -7 -7 -6 -5 -4 -5 -7 -8 -7 -5 -5 -6 -4 -4 -4 -3 -1 -7 -12 -15 -12 -11 -9 -5 1 -5 -9 -10 -6 -4 -2 -1 -3 -3 -2 -0 -1 -1 -1 -2 -2 -2 -1 -1 -1 -0 0 1 0 1 1 1 2 3 3 3 3 2 1 1 1 1 3 5 7 6 5 4 4 4 4 2
-4 -4 -3 -3 -5 -8 -9 -8 -7 -7 -8 -10 -11 -12 -11 -10 -9 -8 -5 -3 -4 -6 -7 -6 -6 -6 -4 -3 -4 -3 -1 -6 -12 -15 -16 -14 -10 -5 -0 -6 -9 -9 -7 -4 -1 -1 -3 -3 -1 -1 -1 -1 -2 -2 -2 -2 -1 -1 -0 0 1 1 2 1 0 -1 -1 -1 1 2 3 3 2 2 1 1 3 5 8 7 6 4 4 4 3 2
-5 -6 -6 -6 -6 -6 -8 -8 -7 -7 -6 -7 -9 -10 -11 -9 -9 -10 -9 -6 -5 -5 -5 -4 -3 -2 0 -1 -2 -2 1 -3 -8 -12 -14 -15 -12 -6 0 -5 -8 -8 -6 -3 -1 -1 -2 -2 -1 -1 -1 -1 -2 -2 -2 -2 -1 -0 0 1 1 2 3 2 0 -1 -2 -1 1 3 4 5 4 3 2 2 4 5 7 7 6 4 3 4 3 3
-6 -6 -6 -7 -7 -8 -8 -7 -8 -8 -8 -7 -7 -7 -8 -6 -5 -4 -4 -3 -3 -4 -4 -3 -2 -1 2 2 -0 -2 0 -2 -6 -10 -11 -13 -11 -7 -1 -4 -7 -7 -5 -2 -2 -2 -2 -1 -1 -1 -1 -1 -2 -2 -3 -1 -0 0 1 1 2 3 3 2 1 -0 -1 -0 1 3 4 5 5 4 3 3 4 6 7 7 5 4 3 3 3 3
-6 -6 -6 -6 -7 -8 -9 -9 -9 -9 -10 -10 -9 -9 -9 -7 -5 -3 -1 -0 -0 -2 -4 -3 -3 -3 -2 -0 -0 -1 -1 -1 -4 -8 -10 -11 -9 -5 -1 -4 -7 -7 -5 -2 -2 -2 -3 -2 -1 -0 -1 -2 -2 -2 -2 -1 -0 0 1 2 3 3 3 2 1 -0 -1 -0 0 1 2 4 4 4 4 4 4 5 6 6 5 3 2 3 3 4
-5 -6 -6 -7 -8 -9 -9 -9 -10 -10 -10 -10 -10 -10 -10 -9 -7 -6 -4 -3 -2 -3 -5 -4 -4 -3 -3 -1 -1 -1 -0 1 -2 -5 -9 -11 -9 -5 -1 -3 -6 -7 -6 -3 -2 -2 -3 -2 -1 -0 -1 -1 -1 -2 -2 -1 -0 0 1 2 2 2 2 1 0 -0 -0 -0 -0 -0 1 4 4 4 4 4 5 5 6 5 4 2 2 2 2 3
-6 -7 -8 -8 -9 -9 -9 -9 -9 -9 -9 -9 -9 -9 -8 -8 -6 -5 -4 -3 -3 -4 -5 -6 -5 -4 -1 -0 -0 -0 1 1 1 -2 -6 -9 -9 -6 -1 -2 -5 -7 -6 -4 -2 -2 -2 -1 -0 0 -0 -0 -1 -1 -1 -1 -0 0 1 1 1 1 0 -0 -0 0 1 1 1 1 2 3 4 4 4 5 5 5 6 5 4 2 0 0 1 2
-6 -6 -7 -7 -7 -7 -6 -6 -6 -6 -6 -7 -8 -8 -7 -6 -6 -6 -5 -2 -2 -2 -3 -4 -6 -7 -5 -1 -0 0 1 1 1 -0 -4 -7 -8 -6 -3 -3 -4 -5 -6 -4 -2 -1 -0 -0 -0 0 -0 -0 -0 -0 -0 -0 -0 -0 0 1 1 0 -0 -0 0 1 3 4 4 4 4 3 4 4 5 5 5 5 6 5 4 2 -0 -0 0 2
-3 -4 -4 -4 -5 -4 -4 -3 -3 -3 -4 -4 -6 -6 -6 -3 -3 -4 -6 -3 -1 -2 -4 -2 -4 -6 -6 -3 -1 1 2 1 1 -1 -4 -6 -6 -6 -4 -3 -3 -4 -5 -5 -3 -0 2 2 1 -0 -1 -0 -0 0 0 0 0 0 0 0 0 0 -0 -0 0 2 4 5 5 5 4 3 3 4 5 5 5 5 5 5 4 2 -0 -0 0 1
-2 -2 -2 -2 -2 -3 -3 -2 -2 -2 -2 -3 -3 -4 -4 -1 -0 -1 -4 -2 -1 -2 -4 -4 -3 -4 -5 -4 -2 1 3 3 2 -1 -4 -5 -6 -6 -4 -3 -2 -3 -4 -7 -6 -2 4 6 4 1 -1 -1 -1 0 1 0 0 -0 -0 0 0 0 0 -0 0 1 3 4 4 4 4 3 3 4 4 5 4 4 3 4 4 3 0 -0 -0 0
-1 -1 -2 -2 -2 -2 -2 -2 -2 -2 -2 -1 -1 -2 -3 -1 -0 0 -2 -1 -1 -1 -4 -4 -4 -4 -5 -5 -3 -0 3 5 4 0 -4 -6 -7 -6 -4 -2 -1 -1 -2 -7 -10 -8 -1 6 8 5 0 -1 -1 -0 0 0 -0 -0 -1 -0 0 1 0 -0 -0 0 1 3 3 4 4 4 4 4 5 5 4 4 4 4 4 2 0 -0 -0 1
1 1 -0 -1 -1 -1 -1 -1 -1 -1 -0 -0 -0 -0 -1 -1 -1 -1 -2 -2 -1 -1 -3 -4 -4 -3 -3 -4 -4 -3 0 4 4 1 -4 -6 -7 -6 -3 -2 -0 1 1 -4 -9 -12 -11 -1 6 8 4 1 -0 -0 0 -0 -0 -1 -1 -1 -0 1 1 0 -0 -0 1 2 3 4 4 5 5 6 6 6 6 5 4 4 4 2 0 -0 0 1
0 0 1 0 0 0 -0 -1 -1 -0 -0 -0 -0 -0 0 0 -0 -1 -1 -2 -2 -2 -3 -4 -3 -3 -2 -2 -2 -3 -2 2 2 -1 -5 -6 -7 -6 -2 -1 -0 1 2 -1 -5 -10 -14 -9 -2 5 6 4 2 1 0 -0 -1 -1 -2 -1 -0 0 1 0 -0 -0 0 2 3 4 4 5 6 7 8 8 7 5 4 4 2 1 0 1 1 1
-1 -1 -1 -0 -0 -0 -0 -0 -0 -1 -1 -1 -1 -1 -0 -0 -0 -0 -0 -1 -2 -2 -3 -4 -4 -3 -2 -1 -0 -0 -0 0 -1 -3 -5 -6 -6 -5 -2 -1 -0 -0 -0 -0 -2 -5 -9 -10 -7 -2 2 4 3 2 1 0 -1 -2 -3 -2 -1 -0 1 0 -0 -0 0 2 3 4 5 6 7 9 11 10 7 5 4 2 1 1 1 2 2 2
-1 -1 -1 -1 -0 -0 -1 -1 -2 -2 -2 -2 -2 -2 -1 -1 -1 -1 -1 -1 -2 -2 -3 -4 -4 -4 -4 -2 -1 -0 1 1 -1 -3 -5 -5 -5 -4 -2 -0 -0 -1 -2 -1 -2 -3 -4 -6 -6 -5 -3 0 2 3 1 -0 -2 -3 -3 -3 -2 -1 -0 -0 -0 -0 0 2 3 4 5 7 9 11 13 11 8 6 3 1 0 1 2 3 3 4
-0 -1 -1 -0 -0 -1 -2 -3 -3 -4 -3 -3 -3 -3 -2 -1 -1 -1 -1 -2 -2 -2 -2 -3 -3 -4 -4 -4 -3 -2 -0 0 -0 -2 -3 -3 -3 -3 -1 -0 -0 -2 -3 -3 -2 -2 -2 -2 -2 -3 -4 -2 0 2 2 -0 -2 -3 -4 -3 -3 -2 -1 -0 -0 -0 0 2 3 4 5 7 10 13 15 13 10 8 4 1 0 1 3 4 4 4
-0 -0 -1 -1 -1 -2 -2 -3 -3 -4 -4 -3 -2 -2 -2 -2 -1 -1 -2 -2 -2 -2 -2 -2 -2 -3 -3 -4 -4 -4 -3 -1 -0 -0 -1 -2 -2 -2 -1 -1 -1 -2 -3 -4 -3 -3 -2 -1 -0 -1 -2 -2 -1 1 2 1 -1 -3 -3 -3 -3 -2 -2 -1 -1 -1 -0 2 3 4 5 7 10 14 16 14 12 10 8 3 0 -0 1 3 2 2
-0 -1 -1 -2 -2 -2 -3 -4 -4 -4 -3 -3 -2 -2 -1 -2 -2 -2 -2 -2 -2 -2 -2 -2 -2 -2 -2 -3 -4 -5 -4 -3 -1 -0 -0 -1 -2 -3 -3 -2 -2 -2 -3 -4 -4 -4 -3 -2 -1 0 1 -0 -0 -0 0 0 -0 -1 -2 -3 -3 -3 -2 -3 -3 -2 -1 1 3 4 5 6 8 11 14 13 12 11 8 2 -2 -3 -1 -0 0 0
-1 -2 -3 -3 -3 -4 -4 -4 -5 -4 -4 -3 -3 -3 -3 -2 -3 -3 -4 -3 -3 -2 -2 -1 -1 -0 -1 -2 -4 -5 -5 -4 -2 -1 -1 -2 -3 -4 -4 -3 -2 -2 -2 -3 -3 -4 -4 -3 -2 -1 1 1 1 1 0 -0 -0 -1 -2 -2 -2 -2 -3 -3 -3 -2 -1 1 2 4 4 5 6 7 8 9 10 11 9 2 -3 -6 -5 -4 -2 -1
-1 -2 -3 -3 -4 -5 -5 -6 -5 -5 -4 -4 -4 -4 -4 -4 -4 -4 -5 -5 -5 -4 -3 -2 -1 -1 -0 -1 -3 -4 -4 -3 -2 -2 -1 -2 -2 -3 -4 -4 -3 -2 -2 -2 -2 -3 -3 -3 -2 -2 -1 1 2 2 2 0 -1 -1 -2 -1 -1 -1 -2 -2 -3 -2 -2 -0 2 3 4 5 4 3 2 2 6 10 10 3 -3 -7 -8 -5 -3 -1
-2 -2 -3 -3 -4 -4 -5 -6 -7 -7 -6 -6 -6 -6 -6 -6 -6 -6 -6 -6 -6 -5 -4 -3 -2 -2 -2 -2 -3 -3 -3 -2 -2 -1 -1 -1 -2 -3 -3 -3 -3 -3 -2 -2 -2 -2 -2 -2 -3 -2 -2 -1 1 2 3 2 0 -1 -1 -0 0 1 0 -1 -2 -2 -2 -0 1 3 3 4 4 2 -1 -1 3 7 9 5 -0 -5 -8 -6 -2 1
-2 -3 -4 -5 -6 -7 -7 -7 -7 -8 -8 -8 -8 -8 -8 -8 -8 -8 -7 -6 -6 -5 -5 -3 -2 -1 -1 -3 -4 -5 -4 -3 -2 -1 -1 -1 -1 -2 -2 -3 -3 -3 -3 -2 -2 -1 -1 -2 -2 -3 -3 -2 -1 1 3 3 2 0 -1 -1 -1 -0 1 0 -1 -2 -2 -1 1 2 3 4 4 3 1 2 6 10 11 7 1 -4 -6 -5 -2 1
-3 -4 -4 -5 -6 -8 -8 -8 -8 -9 -8 -7 -7 -7 -8 -9 -9 -9 -9 -9 -7 -6 -4 -3 -2 -1 0 -1 -3 -4 -5 -4 -3 -2 -1 -0 -0 -0 -0 -1 -1 -2 -2 -2 -1 -1 -1 -1 -2 -2 -3 -2 -1 -0 1 2 2 2 1 -0 -1 -1 2 2 1 -1 -1 -1 1 2 3 3 3 3 2 4 10 14 14 8 3 -2 -6 -4 -1 3
-4 -5 -5 -6 -6 -6 -6 -8 -9 -10 -9 -8 -6 -6 -7 -8 -10 -10 -11 -10 -9 -7 -6 -4 -3 -2 -0 0 -0 -1 -3 -4 -4 -2 -1 -0 1 1 2 1 1 0 -0 -0 -1 -1 -1 -0 -1 -1 -2 -2 -1 -0 0 2 2 2 2 0 -0 0 3 3 2 -0 -1 -1 -0 1 2 2 2 1 1 5 12 16 14 9 4 -0 -5 -5 -1 4
-5 -5 -6 -7 -7 -8 -9 -9 -9 -8 -8 -7 -7 -7 -8 -9 -10 -10 -11 -10 -9 -8 -8 -6 -4 -3 -2 -0 1 1 -0 -3 -4 -3 -2 -1 1 1 2 2 1 1 0 0 -1 -1 -2 -1 -0 -0 -1 -1 -1 -1 -0 0 1 2 1 0 -0 -0 0 1 2 2 -0 -1 -1 -0 1 1 2 2 3 10 14 16 13 10 6 1 -3 -3 -0 3
-5 -6 -6 -6 -7 -8 -8 -8 -7 -7 -8 -8 -8 -8 -8 -9 -9 -10 -10 -9 -8 -8 -8 -7 -6 -5 -3 -1 0 1 0 -2 -3 -4 -4 -4 -3 -2 -1 -1 -1 -1 -1 -1 -1 -2 -2 -1 -1 -0 0 1 0 -0 -0 -0 0 1 1 0 -0 -1 -1 1 2 3 1 -1 -2 -1 -0 1 2 4 7 14 16 16 14 11 8 4 -1 -1 -0 2
-5 -5 -5 -5 -6 -6 -6 -6 -7 -8 -9 -10 -10 -9 -8 -8 -8 -8 -8 -8 -8 -7 -6 -7 -7 -6 -4 -3 -1 -0 -0 -1 -2 -4 -5 -6 -6 -6 -6 -5 -4 -4 -3 -3 -3 -3 -2 -2 -2 -1 -0 1 2 2 1 0 0 1 1 0 -1 -1 -1 0 2 2 1 -0 -1 -2 -1 -0 2 5 8 13 15 15 14 13 10 6 1 -1 -1 1
-3 -3 -3 -4 -4 -5 -6 -7 -8 -9 -9 -9 -9 -9 -9 -8 -8 -7 -7 -7 -6 -6 -6 -6 -6 -6 -6 -5 -4 -2 -1 -0 -0 -1 -2 -3 -4 -5 -6 -7 -6 -6 -5 -4 -4 -3 -3 -2 -2 -2 -2 -1 1 2 2 2 1 1 1 0 -1 -1 -1 -1 -0 -0 0 -0 -1 -2 -2 -0 2 4 6 10 12 14 15 14 12 8 4 1 -0 -0
-2 -2 -2 -3 -4 -6 -7 -8 -8 -8 -8 -8 -8 -7 -8 -8 -7 -7 -6 -6 -6 -6 -5 -5 -5 -5 -5 -5 -5 -4 -2 -1 0 1 1 1 0 -1 -2 -3 -4 -4 -4 -4 -4 -4 -3 -3 -3 -3 -4 -2 -1 1 3 3 2 1 1 1 -0 -1 -2 -3 -2 -1 -0 -0 -1 -2 -2 -0 1 3 5 9 11 13 14 14 13 10 5 2 -0 -1
-2 -2 -3 -4 -5 -6 -6 -7 -7 -7 -6 -6 -6 -6 -6 -6 -6 -6 -6 -6 -6 -6 -5 -4 -4 -3 -4 -4 -4 -4 -4 -2 -1 0 1 2 2 2 2 1 1 0 -0 -1 -2 -2 -3 -4 -4 -4 -5 -4 -3 -1 2 3 3 2 1 1 -0 -1 -2 -3 -3 -2 -1 -0 -0 -1 -1 -0 0 1 3 6 9 11 12 13 13 10 6 3 0 -1
-3 -4 -4 -4 -5 -6 -6 -6 -6 -6 -6 -5 -5 -5 -4 -4 -4 -5 -5 -5 -5 -5 -5 -4 -3 -2 -2 -3 -4 -4 -4 -3 -2 -1 0 1 1 2 2 2 2 3 3 3 3 2 0 -1 -2 -4 -6 -5 -4 -2 -0 1 2 2 1 1 -0 -1 -3 -4 -4 -3 -2 -0 1 0 -0 1 1 2 3 5 7 8 10 11 11 10 8 4 2 0
-4 -4 -5 -5 -5 -5 -6 -6 -6 -5 -5 -5 -5 -4 -4 -4 -4 -3 -4 -4 -4 -4 -4 -4 -3 -2 -1 -2 -3 -3 -4 -4 -3 -1 -0 0 1 1 1 1 1 2 2 3 4 4 4 4 2 -0 -5 -7 -6 -3 -1 -0 1 2 2 1 0 -1 -2 -3 -4 -4 -2 -0 1 1 1 1 1 2 2 3 5 7 9 9 9 9 8 6 4 2
Height
5631 5628 5626 5624 5621 5618 5615 5613 5611 5609 5606 5603 5601 5599 5597 5594 5592 5590 5588 5586 5584 5583 5581 5580 5578 5577 5575 5574 5572 5570 5568 5566 5565 5563 5562 5560 5559 5557 5556 5555 5555 5554 5553 5553 5553 5553 5553 5553 5553 5554 5554 5555 5556 5557 5558 5559 5561 5563 5564 5566 5567 5569 5571 5573 5574 5576 5578 5580 5582 5584 5586 5588 5590 5592 5594 5596 5598 5599 5601 5603 5605 5606 5609 5610 5612 5614
5624 5621 5619 5616 5614 5611 5608 5605 5603 5601 5599 5596 5594 5592 5590 5587 5585 5583 5581 5579 5577 5575 5574 5572 5570 5569 5567 5565 5564 5562 5560 5558 5556 5555 5553 5551 5550 5548 5547 5546 5545 5544 5543 5543 5542 5542 5542 5542 5543 5543 5543 5544 5545 5546 5548 5550 5552 5554 5555 5557 5558 5560 5562 5564 5566 5567 5569 5571 5574 5576 5578 5580 5582 5584 5586 5589 5591 5593 5595 5596 5598 5600 5602 5605 5606 5608
5618 5615 5612 5609 5607 5605 5601 5598 5595 5594 5591 5589 5586 5584 5582 5580 5578 5576 5574 5572 5570 5568 5566 5564 5563 5561 5559 5557 5555 5553 5551 5549 5547 5545 5544 5542 5540 5539 5537 5536 5535 5534 5533 5532 5532 5531 5531 5531 5531 5532 5532 5533 5534 5535 5537 5540 5542 5544 5546 5547 5549 5551 5553 5555 5557 5559 5560 5563 5565 5567 5570 5572 5574 5576 5579 5581 5584 5586 5588 5590 5592 5594 5596 5598 5600 5602
5611 5609 5605 5603 5600 5597 5595 5592 5589 5586 5584 5582 5580 5577 5575 5573 5571 5569 5567 5565 5563 5561 5559 5557 5555 5554 5551 5549 5547 5545 5543 5540 5538 5536 5534 5532 5530 5529 5527 5526 5525 5524 5523 5522 5521 5521 5520 5520 5520 5520 5521 5522 5523 5524 5526 5529 5531 5534 5535 5537 5539 5541 5543 5545 5547 5549 5551 5554 5556 5559 5561 5564 5566 5569 5571 5574 5576 5579 5581 5583 5585 5587 5590 5592 5594 5596
5605 5602 5599 5596 5594 5591 5588 5585 5582 5580 5577 5575 5573 5571 5568 5566 5564 5562 5560 5559 5557 5555 5552 5550 5548 5547 5545 5542 5540 5538 5536 5533 5530 5528 5525 5523 5520 5518 5516 5515 5514 5513 5512 5511 5510 5510 5510 5509 5509 5509 5510 5510 5511 5513 5515 5518 5520 5522 5524 5526 5528 5531 5533 5535 5538 5540 5541 5544 5546 5549 5552 5555 5558 5561 5564 5566 5569 5572 5574 5577 5579 5581 5583 5585 5588 5590
5599 5596 5593 5590 5587 5584 5581 5578 5575 5573 5571 5569 5566 5564 5562 5560 5558 5556 5554 5552 5550 5548 5546 5543 5541 5539 5537 5535 5532 5530 5528 5525 5523 5520 5517 5514 5511 5509 5506 5504 5503 5501 5500 5499 5499 5498 5498 5498 5498 5498 5499 5499 5500 5502 5504 5505 5508 5510 5512 5514 5516 5519 5522 5525 5528 5530 5532 5534 5536 5540 5543 5547 5550 5553 5556 5559 5561 5564 5567 5570 5572 5574 5576 5579 5581 5584
5592 5589 5586 5583 5580 5577 5575 5572 5569 5567 5565 5562 5560 5558 5556 5554 5552 5550 5548 5545 5543 5541 5539 5536 5534 5532 5530 5527 5524 5521 5519 5516 5513 5510 5507 5505 5502 5499 5496 5494 5492 5490 5489 5487 5486 5486 5486 5486 5486 5486 5487 5488 5489 5490 5492 5493 5495 5497 5499 5502 5504 5507 5511 5514 5517 5519 5522 5524 5527 5530 5533 5538 5542 5545 5548 5550 5554 5557 5560 5563 5565 5568 5570 5572 5575 5577
5585 5582 5579 5577 5575 5571 5568 5565 5563 5561 5559 5557 5554 5552 5551 5548 5546 5544 5541 5539 5536 5534 5531 5529 5526 5524 5521 5519 5516 5512 5509 5506 5503 5500 5497 5494 5491 5488 5485 5483 5481 5479 5477 5475 5474 5474 5473 5473 5473 5474 5474 5475 5476 5478 5479 5481 5483 5485 5487 5490 5492 5495 5499 5502 5505 5508 5511 5514 5516 5520 5524 5529 5533 5536 5540 5542 5545 5549 5552 5555 5559 5562 5564 5566 5568 5570
5580 5577 5573 5571 5569 5566 5564 5560 5557 5555 5554 5551 5548 5546 5545 5542 5540 5537 5535 5533 5530 5526 5524 5521 5518 5516 5513 5511 5508 5504 5500 5496 5492 5489 5486 5483 5479 5476 5474 5471 5469 5466 5464 5463 5462 5461 5460 5460 5460 5460 5460 5461 5463 5465 5466 5468 5470 5473 5475 5478 5480 5483 5486 5490 5493 5496 5500 5503 5506 5510 5514 5518 5523 5527 5531 5534 5537 5541 5545 5548 5551 5555 5558 5560 5562 5564
5574 5571 5569 5565 5563 5561 5559 5556 5552 5549 5548 5545 5542 5539 5537 5536 5534 5530 5528 5525 5523 5520 5517 5514 5510 5508 5505 5502 5499 5495 5491 5487 5482 5478 5474 5471 5468 5464 5461 5458 5456 5454 5451 5450 5449 5448 5447 5447 5447 5446 5447 5448 5449 5450 5453 5455 5457 5460 5463 5465 5468 5471 5474 5477 5481 5485 5489 5492 5496 5500 5504 5508 5513 5517 5521 5525 5529 5532 5536 5540 5544 5548 5551 5554 5556 5558
5568 5566 5564 5560 5558 5555 5553 5551 5548 5545 5542 5540 5536 5533 5530 5528 5527 5524 5520 5517 5515 5513 5510 5507 5503 5500 5497 5493 5488 5484 5481 5477 5472 5467 5463 5460 5456 5453 5449 5446 5443 5440 5438 5436 5435 5434 5434 5433 5433 5433 5433 5434 5435 5436 5438 5441 5444 5447 5450 5453 5456 5459 5462 5465 5469 5472 5476 5480 5485 5489 5494 5498 5503 5507 5512 5516 5520 5524 5528 5532 5536 5540 5544 5547 5550 5552
5564 5561 5559 5556 5553 5550 5548 5545 5542 5539 5537 5534 5531 5527 5523 5520 5519 5517 5513 5509 5506 5504 5502 5499 5495 5491 5488 5484 5479 5473 5468 5465 5461 5456 5451 5448 5445 5441 5437 5434 5430 5427 5425 5423 5422 5421 5420 5419 5419 5419 5419 5420 5421 5422 5424 5426 5430 5433 5437 5440 5443 5446 5450 5453 5456 5460 5464 5469 5474 5478 5483 5488 5492 5497 5502 5507 5511 5515 5519 5523 5528 5532 5536 5540 5544 5546
5559 5556 5554 5551 5548 5545 5543 5540 5537 5534 5530 5528 5525 5521 5517 5513 5510 5508 5505 5501 5497 5495 5492 5490 5486 5482 5478 5475 5469 5463 5457 5452 5447 5444 5440 5437 5433 5429 5425 5421 5418 5415 5412 5411 5410 5408 5407 5405 5405 5405 5405 5406 5407 5409 5410 5412 5415 5419 5423 5427 5430 5434 5437 5441 5444 5448 5452 5457 5462 5467 5472 5477 5482 5486 5491 5497 5502 5506 5510 5515 5519 5523 5528 5532 5536 5540
5555 5551 5549 5545 5542 5540 5537 5534 5531 5527 5524 5521 5518 5515 5511 5507 5503 5500 5497 5493 5488 5485 5483 5480 5477 5473 5469 5464 5459 5452 5445 5440 5435 5431 5428 5425 5421 5417 5413 5409 5405 5402 5400 5399 5397 5395 5394 5392 5392 5392 5392 5392 5394 5395 5397 5399 5402 5405 5409 5413 5417 5421 5425 5429 5433 5437 5441 5445 5450 5455 5461 5466 5471 5476 5481 5486 5491 5497 5501 5506 5510 5515 5519 5524 5528 5533
5550 5547 5543 5540 5537 5534 5531 5528 5525 5521 5517 5514 5511 5508 5504 5500 5495 5492 5488 5484 5479 5475 5473 5470 5466 5463 5460 5455 5450 5442 5434 5427 5422 5418 5416 5413 5409 5405 5401 5397 5393 5390 5388 5387 5385 5383 5381 5380 5379 5379 5378 5380 5381 5382 5384 5386 5389 5393 5396 5400 5404 5408 5413 5417 5421 5425 5430 5434 5439 5444 5449 5455 5460 5466 5471 5476 5481 5487 5492 5497 5502 5506 5510 5515 5520 5524
5545 5541 5538 5535 5531 5528 5525 5522 5519 5515 5511 5507 5504 5500 5497 5492 5488 5483 5479 5475 5470 5466 5462 5459 5455 5452 5449 5445 5440 5434 5425 5417 5410 5405 5404 5402 5398 5394 5390 5386 5382 5378 5376 5375 5373 5371 5369 5368 5367 5366 5366 5367 5368 5370 5371 5374 5377 5380 5383 5387 5391 5395 5400 5405 5410 5414 5419 5424 5428 5433 5438 5444 5449 5455 5460 5465 5471 5477 5482 5488 5493 5498 5502 5507 5511 5516
5540 5536 5533 5529 5526 5523 5519 5516 5512 5508 5504 5501 5497 5493 5489 5485 5480 5475 5470 5465 5461 5456 5451 5447 5444 5440 5437 5433 5428 5422 5415 5408 5400 5394 5392 5390 5387 5383 5380 5376 5371 5367 5365 5364 5362 5360 5357 5356 5355 5355 5355 5355 5356 5357 5359 5361 5364 5367 5371 5375 5379 5383 5388 5393 5398 5403 5408 5413 5418 5422 5427 5433 5438 5444 5450 5455 5461 5467 5473 5479 5484 5489 5494 5498 5503 5507
5534 5531 5527 5524 5520 5517 5513 5510 5505 5501 5497 5493 5490 5486 5481 5477 5472 5468 5462 5457 5452 5447 5441 5437 5432 5429 5425 5421 5416 5410 5404 5397 5390 5385 5381 5379 5377 5374 5370 5366 5361 5357 5354 5353 5351 5349 5347 5346 5345 5344 5344 5344 5345 5346 5347 5349 5352 5355 5358 5362 5366 5371 5376 5381 5386 5391 5397 5402 5407 5412 5417 5422 5428 5433 5439 5445 5451 5457 5463 5469 5475 5480 5485 5490 5494 5499
5529 5526 5522 5518 5514 5510 5507 5503 5499 5495 5490 5486 5482 5478 5474 5469 5464 5460 5454 5449 5443 5438 5433 5428 5422 5418 5414 5410 5405 5399 5393 5387 5380 5375 5371 5369 5367 5365 5361 5357 5352 5348 5345 5344 5341 5339 5337 5336 5335 5334 5334 5333 5334 5334 5335 5337 5340 5343 5346 5350 5355 5359 5364 5369 5375 5380 5385 5391 5396 5401 5407 5412 5418 5423 5429 5435 5441 5447 5453 5459 5465 5470 5476 5481 5486 5490
5524 5520 5517 5513 5509 5504 5500 5496 5493 5488 5484 5479 5474 5470 5466 5462 5457 5452 5446 5441 5435 5429 5424 5419 5414 5409 5404 5400 5395 5389 5383 5377 5371 5366 5362 5360 5358 5355 5352 5348 5343 5339 5337 5335 5333 5330 5329 5327 5325 5325 5324 5323 5323 5324 5325 5326 5329 5332 5335 5339 5343 5348 5353 5358 5363 5369 5374 5380 5385 5391 5396 5402 5408 5413 5419 5425 5431 5438 5444 5449 5455 5461 5466 5472 5477 5482
5519 5515 5511 5507 5504 5499 5494 5490 5485 5481 5476 5472 5467 5462 5458 5453 5449 5444 5439 5433 5427 5421 5415 5410 5405 5400 5395 5391 5386 5380 5374 5369 5363 5357 5353 5351 5350 5348 5345 5340 5335 5332 5330 5327 5325 5323 5321 5319 5317 5316 5315 5315 5314 5314 5315 5316 5318 5321 5325 5328 5332 5337 5342 5347 5352 5357 5362 5368 5374 5380 5387 5393 5398 5404 5410 5416 5423 5429 5435 5440 5445 5451 5457 5463 5469 5474
5514 5510 5505 5501 5497 5493 5489 5484 5479 5475 5470 5465 5460 5455 5450 5445 5440 5435 5430 5424 5419 5413 5407 5402 5397 5392 5388 5384 5378 5372 5367 5361 5356 5350 5346 5343 5341 5340 5338 5334 5329 5326 5324 5321 5319 5317 5315 5313 5311 5310 5308 5307 5306 5306 5306 5307 5309 5312 5315 5318 5322 5326 5331 5336 5340 5345 5351 5358 5365 5371 5377 5384 5390 5395 5401 5407 5414 5420 5426 5431 5436 5442 5448 5454 5460 5466
5509 5505 5500 5496 5491 5487 5483 5478 5474 5469 5464 5459 5454 5449 5444 5439 5433 5428 5422 5416 5410 5404 5399 5394 5389 5385 5380 5376 5371 5365 5360 5355 5349 5344 5340 5337 5335 5334 5332 5328 5325 5321 5319 5317 5315 5312 5310 5308 5306 5304 5302 5301 5300 5299 5299 5300 5301 5303 5306 5309 5312 5316 5321 5325 5330 5335 5341 5348 5355 5361 5368 5374 5380 5387 5392 5399 5405 5411 5417 5422 5427 5433 5439 5445 5452 5458
5503 5499 5495 5491 5486 5482 5477 5473 5467 5462 5457 5452 5446 5441 5436 5430 5425 5420 5414 5408 5402 5396 5391 5386 5381 5377 5373 5369 5364 5359 5354 5349 5344 5339 5335 5332 5330 5328 5327 5324 5320 5317 5315 5313 5311 5308 5305 5303 5302 5300 5298 5296 5295 5294 5294 5294 5295 5296 5298 5300 5304 5307 5310 5314 5319 5324 5330 5337 5344 5351 5358 5365 5371 5378 5384 5390 5396 5402 5408 5414 5419 5424 5430 5437 5444 5450
5499 5495 5490 5486 5481 5477 5472 5466 5461 5456 5450 5445 5439 5434 5428 5423 5417 5411 5406 5400 5394 5388 5383 5378 5373 5370 5366 5362 5358 5353 5348 5344 5339 5335 5330 5327 5325 5324 5323 5320 5317 5314 5311 5310 5308 5305 5302 5300 5298 5296 5295 5292 5291 5290 5289 5289 5289 5290 5291 5293 5295 5298 5301 5305 5309 5314 5320 5327 5334 5341 5348 5355 5362 5369 5375 5381 5387 5393 5399 5405 5410 5416 5422 5428 5435 5442
5495 5490 5486 5481 5476 5471 5466 5461 5455 5450 5444 5438 5432 5427 5421 5415 5410 5404 5398 5392 5386 5380 5375 5370 5365 5362 5359 5356 5352 5348 5344 5339 5335 5331 5327 5323 5321 5320 5320 5317 5314 5311 5308 5307 5305 5303 5300 5298 5295 5294 5291 5289 5287 5286 5285 5285 5285 5285 5286 5287 5289 5290 5293 5296 5300 5306 5312 5318 5325 5332 5340 5346 5353 5360 5367 5373 5379 5385 5391 5397 5402 5408 5414 5420 5426 5433
5490 5485 5481 5476 5471 5466 5461 5456 5450 5445 5439 5433 5426 5420 5414 5408 5402 5395 5390 5385 5379 5373 5368 5363 5359 5355 5351 5349 5346 5343 5339 5335 5331 5327 5324 5321 5318 5317 5316 5315 5312 5308 5305 5304 5303 5301 5298 5295 5293 5290 5289 5286 5285 5283 5282 5281 5280 5280 5281 5282 5283 5285 5287 5290 5293 5298 5304 5310 5316 5323 5330 5337 5344 5351 5358 5365 5371 5377 5383 5389 5395 5400 5406 5412 5418 5425
5487 5482 5477 5472 5468 5462 5457 5452 5446 5441 5435 5428 5421 5414 5408 5401 5395 5389 5382 5377 5372 5366 5361 5357 5353 5349 5345 5343 5341 5338 5335 5332 5328 5324 5320 5318 5315 5314 5313 5311 5309 5306 5303 5301 5300 5299 5297 5294 5291 5288 5285 5284 5282 5280 5279 5278 5277 5277 5277 5278 5279 5280 5282 5284 5287 5292 5297 5302 5308 5315 5321 5328 5335 5343 5350 5357 5363 5369 5375 5381 5387 5393 5398 5405 5411 5418
5484 5479 5474 5470 5465 5459 5454 5448 5442 5436 5430 5423 5416 5409 5402 5395 5389 5383 5376 5371 5365 5360 5355 5350 5347 5343 5340 5337 5335 5333 5331 5329 5325 5321 5317 5315 5313 5312 5311 5309 5306 5304 5301 5298 5296 5296 5295 5293 5290 5286 5283 5281 5280 5278 5277 5276 5275 5274 5274 5274 5275 5276 5277 5279 5282 5285 5290 5295 5300 5306 5313 5320 5327 5334 5342 5349 5355 5362 5368 5374 5379 5385 5391 5398 5404 5411
5481 5476 5471 5466 5461 5455 5450 5444 5438 5432 5426 5419 5412 5404 5397 5390 5383 5377 5370 5365 5360 5354 5349 5345 5341 5338 5335 5331 5329 5328 5327 5325 5322 5318 5315 5312 5310 5309 5309 5307 5305 5302 5299 5295 5293 5292 5293 5292 5289 5285 5281 5279 5277 5276 5275 5273 5272 5271 5271 5271 5272 5272 5274 5275 5277 5280 5284 5289 5294 5299 5305 5312 5319 5327 5334 5341 5348 5354 5361 5367 5373 5378 5385 5391 5398 5405
5478 5473 5468 5463 5458 5452 5446 5440 5435 5428 5422 5415 5407 5400 5392 5385 5378 5371 5365 5359 5354 5349 5344 5340 5336 5333 5330 5328 5325 5324 5322 5321 5319 5315 5312 5310 5308 5307 5307 5305 5302 5300 5297 5294 5290 5288 5288 5288 5287 5285 5281 5278 5276 5274 5273 5271 5270 5269 5268 5268 5269 5270 5270 5271 5273 5276 5279 5283 5288 5293 5299 5305 5313 5320 5327 5334 5341 5347 5354 5360 5366 5372 5378 5385 5391 5399
5476 5471 5466 5460 5455 5449 5444 5437 5431 5425 5418 5410 5403 5395 5388 5381 5374 5367 5360 5354 5349 5344 5339 5335 5331 5329 5326 5324 5322 5320 5319 5317 5315 5312 5310 5308 5306 5305 5305 5303 5300 5298 5295 5293 5290 5286 5285 5284 5284 5283 5280 5277 5275 5273 5271 5270 5268 5267 5266 5266 5266 5267 5267 5268 5270 5272 5275 5279 5283 5288 5294 5300 5307 5314 5321 5328 5335 5341 5347 5353 5360 5366 5372 5379 5385 5392
5472 5467 5462 5457 5452 5446 5440 5434 5428 5421 5414 5407 5399 5391 5384 5377 5370 5362 5356 5350 5344 5339 5335 5331 5327 5325 5322 5321 5319 5317 5316 5314 5311 5309 5307 5305 5304 5303 5302 5301 5298 5296 5294 5291 5289 5286 5283 5281 5280 5280 5278 5276 5274 5272 5270 5268 5266 5265 5264 5264 5264 5264 5265 5266 5267 5269 5271 5275 5279 5284 5289 5295 5302 5309 5316 5322 5328 5334 5340 5346 5352 5360 5366 5373 5380 5386
5469 5464 5459 5454 5449 5443 5437 5431 5425 5417 5410 5403 5395 5388 5380 5373 5366 5359 5352 5346 5340 5335 5331 5328 5324 5321 5319 5317 5316 5315 5313 5311 5309 5306 5305 5303 5302 5301 5300 5298 5296 5294 5291 5289 5287 5285 5282 5280 5278 5276 5275 5274 5273 5270 5268 5266 5264 5263 5262 5262 5262 5262 5263 5263 5264 5266 5268 5271 5275 5280 5285 5291 5298 5305 5312 5317 5323 5328 5334 5339 5345 5352 5360 5367 5374 5380
5466 5461 5456 5451 5445 5440 5434 5428 5421 5414 5406 5399 5392 5384 5377 5370 5363 5355 5349 5343 5337 5332 5328 5325 5322 5319 5317 5315 5313 5312 5311 5309 5307 5305 5303 5301 5300 5299 5298 5296 5294 5291 5289 5287 5285 5284 5281 5279 5277 5275 5273 5271 5270 5269 5267 5265 5263 5261 5260 5260 5260 5260 5260 5261 5262 5263 5265 5269 5272 5277 5282 5288 5294 5301 5308 5313 5318 5323 5328 5333 5339 5346 5353 5360 5367 5374
5463 5458 5453 5448 5443 5437 5431 5425 5418 5411 5403 5396 5389 5381 5374 5367 5360 5353 5346 5340 5335 5330 5325 5322 5319 5317 5315 5313 5311 5310 5308 5307 5305 5303 5301 5299 5298 5297 5295 5294 5292 5290 5287 5285 5284 5282 5280 5278 5276 5274 5272 5270 5268 5267 5265 5264 5261 5260 5259 5258 5258 5258 5259 5259 5260 5261 5263 5266 5270 5274 5278 5284 5290 5297 5304 5309 5314 5319 5324 5328 5333 5340 5347 5354 5361 5367
5460 5455 5450 5445 5440 5434 5428 5422 5415 5408 5401 5394 5386 5379 5372 5365 5358 5351 5345 5338 5333 5328 5324 5321 5318 5315 5312 5310 5309 5307 5306 5305 5304 5302 5300 5298 5296 5295 5294 5292 5290 5288 5286 5284 5282 5280 5278 5276 5275 5273 5271 5269 5267 5265 5263 5262 5261 5259 5258 5257 5257 5257 5257 5257 5258 5259 5261 5264 5267 5270 5275 5280 5285 5292 5298 5304 5309 5314 5318 5322 5327 5333 5340 5346 5353 5360
5457 5452 5447 5442 5436 5431 5425 5419 5412 5405 5398 5391 5384 5377 5370 5363 5356 5350 5343 5337 5332 5327 5324 5320 5317 5314 5311 5309 5307 5305 5304 5303 5302 5300 5298 5296 5294 5293 5292 5290 5289 5287 5285 5283 5280 5278 5276 5275 5273 5271 5270 5268 5266 5264 5262 5260 5259 5258 5257 5256 5256 5256 5255 5256 5256 5257 5259 5261 5264 5267 5271 5275 5280 5286 5292 5298 5303 5308 5312 5316 5320 5326 5333 5340 5347 5354
5454 5449 5444 5439 5434 5428 5422 5416 5409 5402 5395 5389 5382 5375 5369 5362 5355 5349 5343 5337 5331 5327 5323 5320 5317 5314 5311 5309 5306 5305 5303 5301 5300 5299 5297 5295 5293 5291 5290 5289 5287 5285 5283 5282 5280 5278 5275 5273 5271 5270 5268 5266 5265 5263 5261 5259 5257 5256 5255 5255 5255 5255 5255 5255 5255 5256 5257 5260 5262 5265 5268 5272 5276 5280 5285 5291 5296 5302 5307 5311 5315 5320 5327 5334 5342 5350
5451 5446 5441 5436 5431 5425 5420 5413 5406 5400 5393 5386 5379 5373 5367 5360 5354 5348 5342 5337 5331 5327 5323 5320 5317 5314 5311 5309 5306 5304 5302 5301 5299 5297 5296 5294 5292 5290 5289 5287 5285 5284 5282 5280 5279 5277 5274 5272 5270 5268 5267 5265 5263 5261 5260 5258 5256 5255 5254 5253 5253 5254 5254 5255 5255 5255 5256 5258 5260 5263 5266 5269 5273 5277 5282 5287 5293 5298 5303 5308 5312 5317 5323 5330 5338 5346
5448 5444 5439 5433 5428 5422 5416 5410 5404 5397 5390 5384 5377 5371 5365 5359 5354 5348 5343 5337 5332 5327 5323 5320 5317 5314 5311 5308 5305 5303 5301 5300 5298 5296 5295 5293 5291 5289 5287 5286 5284 5282 5281 5279 5277 5275 5273 5271 5269 5267 5265 5264 5262 5260 5259 5257 5255 5254 5253 5252 5252 5253 5254 5254 5254 5255 5255 5257 5259 5261 5264 5267 5271 5275 5280 5285 5291 5296 5300 5305 5309 5314 5319 5326 5334 5341
5446 5441 5436 5431 5425 5419 5413 5407 5401 5395 5388 5382 5376 5370 5364 5359 5354 5348 5343 5338 5333 5329 5325 5321 5318 5315 5312 5309 5305 5303 5300 5299 5297 5295 5294 5292 5290 5288 5286 5284 5282 5280 5279 5277 5275 5274 5272 5270 5268 5265 5264 5262 5260 5259 5257 5256 5255 5253 5252 5251 5251 5252 5253 5254 5254 5254 5255 5256 5258 5260 5263 5266 5270 5274 5279 5284 5290 5295 5299 5303 5306 5311 5316 5322 5329 5336
5443 5438 5433 5428 5422 5417 5411 5405 5399 5392 5386 5380 5374 5369 5363 5358 5353 5348 5344 5339 5335 5330 5326 5322 5319 5316 5313 5310 5306 5303 5300 5298 5295 5294 5292 5290 5289 5287 5285 5283 5281 5279 5277 5275 5274 5272 5270 5269 5266 5264 5262 5261 5259 5258 5256 5255 5253 5252 5251 5251 5251 5252 5252 5253 5253 5254 5255 5255 5257 5259 5261 5265 5268 5272 5277 5282 5288 5293 5297 5301 5304 5308 5313 5318 5325 5332
5440 5435 5430 5425 5420 5414 5409 5403 5397 5391 5385 5379 5373 5368 5362 5357 5352 5348 5343 5339 5335 5331 5327 5323 5320 5317 5313 5310 5307 5304 5301 5297 5295 5293 5291 5289 5287 5285 5283 5281 5279 5277 5275 5274 5272 5270 5268 5267 5265 5263 5261 5260 5258 5257 5255 5254 5252 5251 5250 5250 5250 5251 5252 5252 5253 5254 5254 5255 5256 5258 5260 5263 5267 5271 5276 5281 5286 5291 5295 5299 5302 5306 5310 5315 5321 5327
5437 5433 5428 5423 5418 5412 5407 5401 5395 5390 5384 5378 5372 5366 5361 5356 5351 5347 5343 5340 5336 5332 5328 5325 5321 5317 5314 5311 5308 5305 5301 5298 5295 5292 5290 5287 5285 5283 5281 5279 5277 5275 5273 5271 5270 5268 5266 5265 5263 5262 5260 5259 5257 5256 5254 5253 5251 5250 5250 5250 5250 5250 5251 5252 5253 5254 5254 5255 5255 5257 5259 5262 5266 5270 5275 5280 5285 5289 5293 5296 5300 5304 5308 5312 5317 5323
5435 5430 5425 5420 5416 5411 5405 5400 5394 5388 5382 5376 5371 5365 5360 5355 5351 5347 5343 5340 5336 5333 5329 5325 5322 5318 5315 5311 5308 5305 5302 5299 5295 5292 5289 5286 5284 5281 5279 5277 5275 5273 5271 5269 5268 5266 5265 5263 5262 5260 5259 5258 5256 5255 5254 5252 5251 5250 5249 5249 5249 5250 5250 5251 5252 5253 5253 5254 5255 5256 5258 5261 5265 5269 5273 5277 5282 5287 5291 5295 5298 5302 5305 5310 5314 5319
5433 5429 5424 5419 5414 5409 5404 5398 5393 5387 5381 5375 5370 5365 5360 5355 5351 5347 5343 5340 5336 5333 5330 5326 5322 5319 5315 5312 5309 5306 5303 5300 5296 5293 5290 5287 5284 5281 5278 5276 5274 5272 5270 5268 5266 5265 5263 5261 5260 5259 5257 5256 5255 5254 5253 5251 5250 5249 5248 5248 5248 5249 5249 5250 5251 5252 5252 5253 5254 5256 5258 5261 5264 5267 5270 5275 5280 5285 5289 5292 5296 5299 5303 5307 5311 5316
5432 5427 5423 5418 5413 5408 5402 5397 5392 5386 5380 5375 5369 5364 5359 5355 5351 5347 5343 5340 5336 5333 5330 5326 5323 5319 5315 5312 5309 5306 5303 5300 5297 5295 5291 5289 5285 5282 5280 5277 5274 5272 5270 5268 5266 5264 5262 5260 5259 5257 5256 5255 5254 5253 5252 5251 5250 5249 5248 5247 5247 5248 5248 5249 5250 5251 5252 5253 5254 5255 5258 5260 5263 5265 5269 5274 5278 5283 5286 5290 5294 5297 5300 5304 5308 5313
5430 5426 5421 5416 5411 5406 5401 5396 5391 5385 5380 5375 5369 5364 5359 5355 5350 5347 5343 5340 5336 5333 5330 5326 5323 5319 5316 5313 5310 5306 5304 5301 5298 5295 5292 5290 5287 5284 5281 5278 5275 5273 5271 5268 5266 5264 5261 5260 5258 5256 5254 5253 5252 5251 5251 5250 5249 5248 5247 5247 5247 5247 5247 5248 5249 5250 5251 5252 5254 5255 5257 5260 5262 5265 5268 5273 5277 5280 5284 5288 5292 5295 5299 5302 5306 5310
5428 5424 5419 5415 5410 5405 5400 5395 5390 5385 5380 5375 5369 5364 5359 5355 5350 5346 5343 5339 5336 5333 5329 5326 5323 5320 5316 5313 5310 5307 5304 5300 5298 5295 5292 5290 5287 5285 5282 5279 5277 5275 5272 5270 5267 5265 5262 5260 5258 5255 5253 5252 5251 5250 5250 5249 5249 5248 5247 5246 5246 5246 5247 5247 5249 5250 5251 5252 5254 5255 5257 5259 5262 5265 5268 5272 5275 5279 5282 5286 5290 5294 5297 5301 5305 5309
5427 5422 5418 5413 5409 5404 5399 5394 5389 5385 5380 5374 5369 5364 5359 5355 5350 5346 5342 5339 5335 5332 5329 5326 5323 5320 5316 5313 5310 5307 5304 5301 5298 5295 5292 5290 5287 5284 5282 5280 5277 5275 5272 5270 5268 5266 5263 5261 5259 5256 5254 5251 5250 5249 5249 5248 5248 5247 5246 5245 5245 5245 5246 5247 5248 5249 5250 5252 5253 5255 5256 5259 5261 5264 5267 5270 5274 5277 5281 5285 5288 5292 5296 5300 5304 5308